Location: Bonn
(50.7330°N, 7.1000°E)
Time: 17:06:26
(UTC+02:00)

Daily predictions for brighter satellites

Satellite Brightness Start Highest point End
(mag) Time Altitude Azimuth Time Altitude Azimuth Time Altitude Azimuth
Cosmos 1758 Rocket 4.4 22:13:25 10° SSE 22:17:21 34° E 22:21:17 10° NNE
Tsikada Rocket 4.3 22:12:30 10° SSW 22:18:54 78° W 22:25:18 10° N
USA 234 3.4 22:13:30 10° SE 22:20:06 80° SSW 22:26:43 10° WNW
Cosmos 1190 Rocket 4.3 22:15:07 10° S 22:20:11 48° ESE 22:25:19 10° NNE
SL-16 R/B 4.0 22:15:55 10° WSW 22:21:09 37° NW 22:26:25 10° NNE
UNK 4.3 22:17:53 10° NNE 22:23:16 62° ESE 22:28:55 10° S
NOAA 11 4.4 22:19:16 10° SSE 22:24:35 60° ENE 22:29:56 10° N
H-2A R/B 2.9 22:22:48 10° SE 22:27:22 36° ENE 22:32:03 10° N
Landsat 7 4.5 22:23:17 10° SE 22:27:46 43° ENE 22:32:17 10° N
Cosmos 1825 Rocket 3.6 22:29:00 10° S 22:33:26 78° E 22:37:52 10° NNE
SPOT 1/Viking Rocket 3.6 22:31:13 10° SSE 22:36:22 87° WSW 22:41:34 10° NNW
Cosmos 1766 3.4 22:33:00 10° N 22:37:01 67° ENE 22:41:01 10° SSE
Cosmos 676 Rocket 4.5 22:32:29 10° S 22:37:28 42° ESE 22:42:28 10° NE
Cosmos 2263 4.5 22:32:04 10° NW 22:37:39 66° WSW 22:43:13 10° SSE
DELTA 2 DEB (DPAF) 4.4 22:34:26 10° SSE 22:38:51 62° ENE 22:43:19 10° N
ISS -3.3 22:37:18 10° SW 22:40:31 55° SSE 22:43:43 10° E
SPOT 5 3.7 22:36:41 10° S 22:40:48 41° W 22:44:56 10° NNW
Cosmos 1758 4.1 22:37:30 10° N 22:41:24 39° ENE 22:44:58 12° SE
Terra 2.5 22:39:10 10° SE 22:43:35 43° ENE 22:48:07 10° N
Cosmos 1634 Rocket 4.3 22:39:22 10° NNW 22:45:31 69° W 22:51:39 10° S
IGS 5A 4.2 22:46:46 12° SE 22:50:21 41° ENE 22:54:17 10° N
COSMOS 2406 4.2 22:45:54 10° SSE 22:50:39 28° ESE 22:55:25 10° NE
Lacrosse 5 3.1 22:46:12 10° WNW 22:51:01 41° N 22:55:50 10° ENE
Atlas Centaur 2 4.4 22:47:39 10° SW 22:51:45 15° S 22:55:31 11° SSE
Cosmos 1066 Rocket 4.4 22:46:28 10° SSW 22:52:14 84° WNW 22:58:07 10° NNE
YAOGAN 6 3.4 22:49:11 10° S 22:52:49 50° W 22:56:30 10° NNW
Cosmos 2084 3.5 22:50:33 10° NW 22:54:36 66° SW 22:58:13 14° SSE
Lacrosse 4 Rocket 1.3 22:52:52 10° SSW 22:56:55 72° ESE 23:01:03 10° NE
Cosmos 1943 Rocket 2.3 22:53:46 10° NNW 22:59:19 77° WSW 23:04:19 13° SSE
NOSS 2 (A) 4.3 23:00:27 10° NW 23:02:47 63° NE 23:04:33 18° SE
Cosmos 1544 4.3 22:59:49 10° N 23:03:13 31° ENE 23:05:48 15° SE
Cosmos 1470 4.2 23:00:15 10° NNE 23:03:35 26° ENE 23:06:14 13° ESE
Cosmos 407 Rocket 3.5 22:59:57 10° SSW 23:05:13 86° ESE 23:10:27 10° NNE
Cosmos 1805 3.5 23:01:34 10° N 23:05:30 59° ENE 23:08:31 16° SSE
Cosmos 2279 Rocket 4.1 22:59:18 10° NNW 23:05:35 80° W 23:11:51 10° S
Cosmos 1656 Rocket 3.9 23:03:00 10° NNW 23:08:43 70° ENE 23:13:27 15° SE
SAR-Lupe-2 3.5 23:06:24 16° SSE 23:09:12 77° ENE 23:12:49 10° NNW
Cosmos 1943 3.5 23:05:09 10° SW 23:10:49 71° WNW 23:16:33 10° NNE
SL-8 R/B 4.1 23:09:28 10° W 23:14:07 47° SSW 23:17:49 15° SE
Cosmos 1900 4.4 23:09:12 10° SSW 23:14:21 79° SE 23:19:30 10° NE
Cosmos 2221 4.1 23:13:43 10° NNE 23:17:15 24° ENE 23:20:07 13° ESE
Cosmos 1818 4.4 23:12:40 10° NW 23:17:59 46° NE 23:23:14 10° ESE
CZ-4C R/B 3.8 23:16:41 14° SE 23:18:21 15° ESE 23:21:36 10° ENE
CZ-4C R/B 3.9 23:15:21 12° S 23:19:04 55° WSW 23:22:57 10° NNW
Cosmos-2242 3.3 23:15:52 10° NNW 23:20:17 70° W 23:24:01 14° S
Cosmos 1953 Rocket 4.5 23:17:07 10° SSW 23:21:25 49° WNW 23:25:46 10° N
Cosmos 1954 Rocket 4.0 23:20:47 10° SSW 23:26:05 78° ESE 23:31:24 10° NNE
Cosmos 2208 Rocket 4.1 23:24:49 10° NNW 23:30:00 75° WSW 23:33:53 18° SSE
Cosmos 1953 2.6 23:26:12 10° NNW 23:30:10 62° W 23:33:12 16° S
SL-27 R/B 2.2 23:30:30 13° SSW 23:33:27 84° ESE 23:36:50 10° NNE
Lacrosse 5 rocket 3.1 23:31:12 10° WNW 23:34:56 34° N 23:38:53 10° ENE
COSMOS 2455 4.2 23:31:58 10° WSW 23:37:39 42° NW 23:43:23 10° NNE
ARGOS 4.4 23:32:44 10° SSW 23:37:43 36° W 23:42:45 10° NNW
COSMOS 2487 3.5 23:37:53 23° SE 23:39:11 30° ESE 23:42:24 10° NE
Cosmos 1707 3.9 23:40:37 21° SE 23:42:21 29° E 23:45:48 10° NNE
Geosat 3.9 23:42:43 10° NNE 23:47:47 74° ESE 23:52:49 10° SSW
Cosmos 2369 Rocket 4.4 23:45:02 10° WNW 23:48:12 15° W 23:51:20 10° SW
Cosmos 1741 Rocket 4.1 23:44:31 15° S 23:48:52 63° ESE 23:54:09 10° NNE
ATLAS 3B R/B 3.2 23:43:44 10° SW 23:51:25 72° NW 23:58:50 10° NE
Cosmos 1842 4.4 23:49:31 10° SSW 23:53:16 42° WNW 23:57:01 10° N
